Regional Weather Roundup
Issued by NWS

Home | Current Version | Previous Version | Graphics & Text | Print | Product List | Glossary Off
Versions: 1 2 3 4 5 6 7 8 9 10 11 12 13 14 15 16 17 18 19 20 21 22 23 24 25 26 27 28 29 30 31 32 33 34 35 36 37 38 39 40 41 42 43 44 45 46 47 48 49 50

000
ASUS43 KMKX 220321
RWRWI

WISCONSIN REGIONAL WEATHER ROUNDUP
NATIONAL WEATHER SERVICE MILWAUKEE/SULLIVAN WI
1000 PM CDT THU AUG 21 2014

NOTE: "FAIR" INDICATES FEW OR NO CLOUDS BELOW 12,000 FEET WITH NO
SIGNIFICANT WEATHER AND/OR OBSTRUCTIONS TO VISIBILITY.

WIZ001-002-006>008-014>016-023>028-220400-
NORTHWEST WISCONSIN

CITY           SKY/WX    TMP DP  RH WIND       PRES   REMARKS
SUPERIOR ARPT  CLOUDY    61  60  97 NE12G23   29.92R
ASHLAND        CLOUDY    65  63  93 N5        29.91S
HAYWARD        CLOUDY    69  67  93 E6        29.90S
SIREN          CLOUDY    71  70  95 NE5       29.87S
RICE LAKE      CLOUDY    71  69  93 NE3       29.89S
LADYSMITH      HVY RAIN  69  67  94 E5        29.93R
EAU CLAIRE     MOCLDY    76  72  87 S6        29.85S
MENOMONIE      MOCLDY    74  72  92 CALM      29.86S
NEW RICHMOND   PTCLDY    72  71  98 E5        29.85S
OSCEOLA        CLOUDY    73  73 100 E5        29.86F
$$

WIZ003>005-009-010-017-018-220400-
NORTH CENTRAL WISCONSIN

CITY           SKY/WX    TMP DP  RH WIND       PRES   REMARKS
WOODRUFF       CLOUDY    67  64  89 SE7       29.96S
RHINELANDER    CLOUDY    64  63  96 E9        29.97S
EAGLE RIVER    CLOUDY    64  63  96 SE5       29.97R
LAND O LAKES   CLOUDY    65  63  91 S5        29.98S
PHILLIPS       CLOUDY    66  65  96 SE5       29.93S
TOMAHAWK       LGT RAIN  65  63  93 SE3       29.96R
MEDFORD        CLOUDY    67  67  99 SE6       29.93S FOG
MERRILL        CLOUDY    65  65 100 E5        29.95R FOG
$$

WIZ029-030-035-036-043>047-220400-
CENTRAL WISCONSIN

CITY           SKY/WX    TMP DP  RH WIND       PRES   REMARKS
WAUSAU         CLOUDY    66  65  96 E8        29.93R FOG
MOSINEE        FOG       66  66 100 E8        29.95S VSB 1/4
MARSHFIELD     CLOUDY    73  70  90 E3        29.92R
STEVENS POINT  CLOUDY    67  65  96 E8        29.94S FOG
WAUPACA        CLOUDY    71  69  92 NE5       29.94S
WAUTOMA        MOCLDY    72  70  94 CALM      29.93S
WISC RAPIDS    MOCLDY    73  70  90 SE7       29.92F
CAMP DOUGLAS   CLEAR     72  72 100 SE6       29.91S
$$

WIZ011>013-019>022-031-037>040-048>050-220400-
NORTHEAST WISCONSIN

CITY           SKY/WX    TMP DP  RH WIND       PRES   REMARKS
ANTIGO         CLOUDY    63  62  97 SE8       29.97F
STURGEON BAY   CLOUDY    64  61  88 E5        29.97S
GREEN BAY      CLOUDY    67  65  93 E5        29.95F
MANITOWOC      CLOUDY    66  65  96 SE3       29.96F FOG
APPLETON       CLOUDY    70  66  88 VRB5      29.95F FOG
CLINTONVILLE   CLOUDY    66  63  88 E3        29.94S
OSHKOSH        PTCLDY    71  69  93 SE7       29.93S
$$

WIZ032>034-041-042-053>061-220400-
SOUTHWEST WISCONSIN

CITY           SKY/WX    TMP DP  RH WIND       PRES   REMARKS
LA CROSSE      PTCLDY    77  71  82 SE8       29.87R
SPARTA         PTCLDY    73  70  93 CALM      29.90S
VIROQUA        FAIR      71  71 100 SE5       29.92R
BOSCOBEL       MOCLDY    72  70  93 CALM      29.90S FOG
PRAIRIE DU CHI PTCLDY    73  71  92 CALM      29.89R
PLATTEVILLE    MOCLDY    73  71  95 E7        29.93S
$$

WIZ056-057-062-063-064-067-068-220400-
SOUTH CENTRAL WISCONSIN

CITY           SKY/WX    TMP DP  RH WIND       PRES   REMARKS
BARABOO/DELLS  CLEAR     72  69  91 CALM      29.92S FOG
LONE ROCK      CLEAR     75  70  84 CALM      29.91S
WATERTOWN      MOCLDY    71  71 100 E5        29.93F
MADISON        CLOUDY    76  72  87 S5        29.93R
MIDDLETON      CLOUDY    74  73  99 CALM      29.94S
MONROE         PTCLDY    72  72 100 E5        29.94S
JANESVILLE     MOCLDY    73  72  94 CALM      29.94S FOG
$$

WIZ051-052-058>065-066-070>072-220400-
SOUTHEAST WISCONSIN

CITY           SKY/WX    TMP DP  RH WIND       PRES   REMARKS
MILWAUKEE      CLOUDY    72  69  90 SE3       29.95R
WAUKESHA       CLEAR     70  68  94 CALM      29.96F
MILWAUKEE/TIMM CLOUDY    70  66  88 E3        29.95F
RACINE         CLOUDY    72  69  90 E3        29.97R FOG
BURLINGTON     CLOUDY    69  68  99 CALM      29.95R FOG
KENOSHA        CLOUDY    71  70  96 E3        29.96R FOG
FOND DU LAC    MOCLDY    72  68  87 SE3       29.94S
SHEBOYGAN      FOG       67  66  97 CALM      29.96S VSB 1/4
WEST BEND      FOG       68  64  88 CALM      29.96S VSB 1/2
JUNEAU         CLOUDY    71  45  38 E5        29.95S
$$

LSZ147-162-220400-
LAKE SUPERIOR

STATION/POSITION TIME  TEMP    WIND        PRES    WAVE
                       AIR SEA DIR/SP/G            HT/PER
                 (UTC) (F)     (DEG/KT/KT) (MB)    (FT/S)
W MID LAKE BUOY  0250   59 58   60/ 14/ 16 1013.5R   2/ 4
DEVILS ISLAND    0300   61      60/ 15/ 17 1013.0R
PORT WING        0200   62      40/ 14/ 16 1012.5R
SAXON HARBOR     0200   66        CALM     1012.2
$$

LMZ867-665-643>646-220400-
LAKE MICHIGAN

STATION/POSITION TIME  TEMP    WIND        PRES    WAVE
                       AIR SEA DIR/SP/G            HT/PER
                 (UTC) (F)     (DEG/KT/KT) (MB)    (FT/S)
N MID LAKE BUOY  0250   65 65  100/  6/  8 1014.5R   0
NORTHPORT PIER   0200   66      90/  2/  4 1014.9R
SISTER BAY       0241   66     110/  7/  9   N/A
ALGOMA LAKESHORE 0208           50/  5/  7   N/A
KEWAUNEE LAKESHO 0300   65      70/  1/  2 1013.7S
SHEBOYGAN LAKESH 0300   66 66  100/  4/  4 1014.5F
ATWATER BUOY     0300   69     100/  6/  8 1015.2S
MILWAUKEE LAKESH 0300   70     120/  3/  3   N/A
S MID LAKE BUOY  0250   69 68   90/  4/  4 1014.2R   0
KENOSHA   LAKESH 0300   71      70/  2/  4 1013.9R
$$

TC  - TEMPERATURE IN CELSIUS
VSB - VISIBILITY IN STATUTE MILES
WCI - WIND CHILL INDEX
HX  - HEAT INDEX




USA.gov is the U.S. government's official web portal to all federal, state and local government web resources and services.